Location: Newark
(45.2500°N, 7.5833°E)
Time: 04:33:13
(UTC+00:00)

Tiros 1 despin weight - Pass Details

Date: 02 February 2020
Orbit: 594 x 642 km, 48.2° (Epoch: 18 February)

Event Time Altitude Azimuth Distance (km) Brightness Sun altitude
Rises 13:31:40 0° 289° (WNW) 2,885 ? 23.2°
Reaches altitude 10° 13:34:05 10° 281° (W) 1,986 ? 23.0°
Maximum altitude 13:38:17 37° 215° (SW) 977 ? 22.6°
Drops below altitude 10° 13:42:31 10° 148° (SSE) 2,004 ? 22.3°
Sets 13:44:58 0° 140° (SE) 2,915 ? 22.0°
